Mitchell, SD

5:48 AM CDT on October 21, 2017 (GMT -0500)
Mitchell Municipal

Weather History for KMHE - November, 2012

Change the Weather History Date:

Sunday, November 11, 2012

  Actual Average Record
Temperature  
Mean Temperature 21 °F 37 °F  
Max Temperature 26 °F 47 °F 77 °F (2005)
Min Temperature 16 °F 26 °F -8 °F (1986)
Degree Days  
Heating Degree Days 44 28  
Month to date heating degree days 284 278  
Since 1 July heating degree days 952 919  
Cooling Degree Days 0 0  
Month to date cooling degree days 0 0  
Year to date cooling degree days 1236 824  
Moisture  
Dew Point 12 °F    
Average Humidity 65    
Maximum Humidity 75    
Minimum Humidity 54    
Precipitation  
Precipitation 0.00 in 0.02 in 1.32 in (1982)
Month to date precipitation 0.08 0.40  
Year to date precipitation 21.16 20.69  
Snow  
Snow 0.00 in - 5.80 in (2000)
Month to date snowfall T  
Since 1 July snowfall 0.7  
Since 1 September snowfall 0.7  
Snow Depth 0.00 in    
Sea Level Pressure  
Sea Level Pressure 29.99 in    
Wind  
Wind Speed 19 mph (WNW)    
Max Wind Speed 32 mph    
Max Gust Speed 39 mph    
Visibility 10 miles    
Events      
T = Trace of Precipitation, MM = Missing Value Source: NWS Daily Summary

Daily Weather History Graph

Daily Weather History Graph

Search for Another Location

Airport or City:

Trip Planner

Search our weather history database for the weather conditions in past years. The results will help you decide how hot, cold, wet, or windy it might be!

Date:

Astronomy

Nov. 11, 2012 Rise Set
Actual Time 7:21 AM CST 5:09 PM CST
Civil Twilight 6:51 AM CST 5:40 PM CST
Nautical Twilight 6:16 AM CST 6:15 PM CST
Astronomical Twilight 5:42 AM CST 6:49 PM CST
Moon 4:33 AM CST (11/11) 3:37 PM CST (11/11)
Length of Visible Light 10h 49m
Length of Day
9h 48m
Waning Crescent, 7% of the Moon is Illuminated
Nov 11
Waning Crescent
Nov 13
New
Nov 20
First Quarter
Nov 28
Full
Dec 6
Last Quarter

Hourly Weather History & Observations

Time (CST) Temp. Windchill Dew Point Humidity Pressure Visibility Wind Dir Wind Speed Gust Speed Precip Events Conditions
12:11 AM 26.6 °F 10.8 °F 19.4 °F 74% 29.80 in 10.0 mi NW 27.6 mph 34.5 mph N/A   Overcast
12:28 AM 24.8 °F 9.0 °F 17.6 °F 74% 29.79 in 10.0 mi NW 25.3 mph 39.1 mph N/A   Overcast
12:53 AM 25.0 °F 9.5 °F 18.0 °F 75% 29.85 in 10.0 mi NW 24.2 mph 35.7 mph N/A   Overcast
1:13 AM 24.8 °F 9.0 °F 17.6 °F 74% 29.81 in 10.0 mi NW 25.3 mph 32.2 mph N/A   Overcast
1:53 AM 24.1 °F 8.7 °F 17.1 °F 75% 29.86 in 10.0 mi NW 23.0 mph 31.1 mph N/A   Overcast
2:05 AM 23.0 °F 6.6 °F 15.8 °F 74% 29.83 in 10.0 mi NW 25.3 mph - N/A   Overcast
2:26 AM 23.0 °F 8.7 °F 15.8 °F 74% 29.85 in 10.0 mi NW 18.4 mph 31.1 mph N/A   Overcast
2:53 AM 23.0 °F 7.6 °F 16.0 °F 74% 29.88 in 10.0 mi NW 21.9 mph 27.6 mph N/A   Overcast
3:09 AM 23.0 °F 8.7 °F 15.8 °F 74% 29.87 in 10.0 mi WNW 18.4 mph - N/A   Overcast
3:53 AM 21.9 °F 5.1 °F 14.0 °F 72% 29.92 in 10.0 mi WNW 25.3 mph 32.2 mph N/A   Overcast
4:53 AM 21.0 °F 5.4 °F 12.9 °F 71% 29.94 in 10.0 mi NW 20.7 mph 32.2 mph N/A   Overcast
5:53 AM 19.9 °F 3.9 °F 12.0 °F 71% 29.96 in 10.0 mi WNW 20.7 mph 29.9 mph N/A   Overcast
6:53 AM 18.0 °F 0.9 °F 9.0 °F 68% 29.97 in 10.0 mi NW 21.9 mph - N/A   Mostly Cloudy
7:53 AM 16.0 °F -1.7 °F 7.0 °F 68% 30.00 in 10.0 mi WNW 21.9 mph 27.6 mph N/A   Clear
8:53 AM 17.1 °F -0.6 °F 7.0 °F 65% 30.01 in 10.0 mi NW 23.0 mph 34.5 mph N/A   Clear
9:53 AM 19.0 °F 1.0 °F 9.0 °F 65% 30.04 in 10.0 mi NW 26.5 mph - N/A   Clear
10:53 AM 21.0 °F 5.4 °F 10.0 °F 63% 30.03 in 10.0 mi NW 20.7 mph - N/A   Clear
11:53 AM 23.0 °F 6.6 °F 10.0 °F 58% 30.04 in 10.0 mi NW 25.3 mph 31.1 mph N/A   Clear
12:53 PM 23.0 °F 7.6 °F 10.0 °F 58% 30.03 in 10.0 mi WNW 21.9 mph 28.8 mph N/A   Clear
1:53 PM 24.1 °F 8.7 °F 10.0 °F 55% 30.04 in 10.0 mi WNW 23.0 mph 28.8 mph N/A   Partly Cloudy
2:53 PM 23.0 °F 7.6 °F 9.0 °F 55% 30.04 in 10.0 mi WNW 21.9 mph - N/A   Scattered Clouds
3:42 PM 23.0 °F 8.7 °F 8.6 °F 54% 30.00 in 10.0 mi WNW 18.4 mph 25.3 mph N/A   Mostly Cloudy
3:50 PM 23.0 °F 7.6 °F 8.6 °F 54% 30.00 in 10.0 mi WNW 21.9 mph 26.5 mph N/A   Overcast
3:53 PM 23.0 °F 8.3 °F 9.0 °F 55% 30.06 in 10.0 mi WNW 19.6 mph 26.5 mph N/A   Overcast
4:53 PM 21.9 °F 9.2 °F 10.0 °F 60% 30.08 in 10.0 mi WNW 13.8 mph - N/A   Clear
5:53 PM 19.9 °F 7.9 °F 10.0 °F 65% 30.09 in 10.0 mi WNW 11.5 mph - N/A   Clear
6:53 PM 19.9 °F 9.3 °F 10.9 °F 68% 30.12 in 10.0 mi West 9.2 mph - N/A   Scattered Clouds
7:53 PM 19.0 °F 7.5 °F 10.9 °F 71% 30.12 in 10.0 mi West 10.4 mph - N/A   Scattered Clouds
8:53 PM 19.0 °F 9.0 °F 10.9 °F 71% 30.14 in 10.0 mi West 8.1 mph - N/A   Clear
9:53 PM 19.0 °F 6.8 °F 10.9 °F 71% 30.14 in 10.0 mi West 11.5 mph - N/A   Clear
10:53 PM 18.0 °F 5.4 °F 10.0 °F 71% 30.14 in 10.0 mi West 11.5 mph - N/A   Clear
11:53 PM 18.0 °F 6.1 °F 10.9 °F 74% 30.14 in 10.0 mi West 10.4 mph - N/A   Partly Cloudy